COSMOS 1869

Satellite information

Favourite Embed

Satellite Type and Status

PAYLOADIN ORBIT

Key statistics

Satellite COSMOS 1869 at a glance.

Uptime

13929

Days in orbit

Revolutions

≈ 15.3

Per day

Orbit

LEO

Low Earth Orbit

Inclination

82.5

Latest

Satellite identification and parameters

Extended collection of information and parameters for COSMOS 1869.

Object identification

Identified? True

Debris? False

Object name: COSMOS 1869

International designator: 1987-062A

Object number (NORAD): 18214

Object ID (CCSDS): 18214

Country: COMMONWEALTH OF INDEPENDENT STATES (CIS)

Current information (Y/N): Y

RCS size: LARGE

Orbital parameters

Period: 94.103 minutes

Inclination: 82.5137 deg

SMA: 6853.248 km

Apoapsis: 489.008 km

Periapsis: 461.218 km

RAAN: 31.8843 deg

Eccentricy: 0.00202746

Argument of periapsis: 11.4012 deg

Mean anomaly: 348.7683 deg

Mean motion: 15.30234798 rev/day

Mean motion (dot): 0.00017534 rev/day2

B* drag term: 0.00059420944 1/REarth

Two-line elements (TLE)

Creation date: Sept. 3, 2025, 2:21 a.m.

Reference frame: TEME

Reference center: EARTH

Epoch: Sept. 2, 2025, 9:47 p.m. UTC

TLE line 0: 0 COSMOS 1869

TLE line 1: 1 18214U 87062A 25245.90778294 .00017534 00000-0 59421-3 0 9997

TLE line 2: 2 18214 82.5137 31.8843 0020275 11.4012 348.7683 15.30234798 60520

Live tracking on map

Real-time ground track for satellite COSMOS 1869.

In-orbit conjunctions

A list of the most updated potential collisions computed for object COSMOS 1869.

Target Orbit TCA Probability of collision Miss distance Type
COSMOS 1536 LEO 2025-03-07 10:27:56 0.0001055895 986.0 (m) PAYLOAD
OBJECT Z SSO 2024-09-03 21:58:11 0.000377965 908.0 (m) UNKNOWN

Associated space launch

Ocean observation satellite

COSMOS 1869 was lifted into orbit during the mission ‘Tsiklon-3 | Okean-O1 2’, on board a Tsiklon-3 space rocket.

The launch took place on July 16, 1987, 4:25 a.m. from 32/2.

For more information about the launch, click the button.

Launch to space Tsiklon-3 | Okean-O1 2
Tsiklon-3 | Okean-O1 2

Agency: N/A

Status: Launch Successful

Launch date: July 16, 1987, 4:25 a.m. UTC

Rocket: Tsiklon-3

Launch pad: 32/2

Location: Plesetsk Cosmodrome, Russian Federation

...

Latest news about this satellite

There are no fresh news available about this satellite. Check back as we update our databases every day.


Newsletter sign-up

Weekly statistics, charts and insights to help you stay on top of the space industry.